Theta_e
301 301 300 300 300 300 300 300 300 300 300 299 298 300 300 301 299 297 296 303 304 301 302 301 306 305 309 311 308 304 303 306 306 306 307 306 305 308 309 309 308 310 311 312 314
302 301 300 300 300 300 301 301 300 300 300 299 295 294 295 299 297 295 307 311 310 310 307 309 310 310 308 308 307 302 304 305 304 306 306 307 307 309 307 307 307 310 312 312 314
301 301 299 299 299 299 300 300 300 299 298 297 294 293 297 299 296 300 310 310 310 309 310 309 312 311 308 307 304 302 306 306 304 305 306 306 307 309 305 305 308 309 311 311 313
300 300 298 299 299 299 299 299 299 297 297 296 294 293 297 298 294 304 308 304 298 298 308 307 310 311 311 308 306 303 303 304 306 306 306 304 306 306 307 309 311 310 309 310 312
300 299 298 298 298 299 299 299 298 298 295 294 293 293 298 298 297 295 295 296 298 298 298 299 306 309 311 308 306 305 306 305 305 305 305 305 304 305 305 308 309 309 310 310 310
298 299 298 297 297 298 298 298 298 298 296 293 293 295 298 297 295 295 295 295 296 297 299 298 299 305 304 309 309 307 306 307 308 306 304 304 304 303 307 307 308 308 310 310 311
298 298 296 297 298 298 299 298 298 298 293 292 292 295 296 294 293 294 296 298 299 300 296 298 297 301 304 307 306 308 307 308 308 306 304 306 305 305 305 306 308 308 309 309 309
298 298 297 298 297 297 298 297 297 292 292 293 291 293 293 292 294 298 300 296 296 296 296 294 295 295 299 301 304 306 306 307 306 308 307 305 308 307 308 306 305 307 309 309 309
296 296 296 297 298 297 297 297 292 292 293 291 291 293 293 295 297 298 296 293 293 293 293 294 295 295 297 302 300 302 304 304 305 305 307 307 309 307 308 306 306 306 307 309 309
297 296 296 296 297 296 296 292 292 292 293 291 292 292 292 292 292 293 294 294 294 294 294 294 295 296 299 301 302 300 303 304 304 304 306 307 307 307 307 307 306 307 308 308 309
296 296 295 295 296 296 294 292 292 292 292 292 292 293 293 293 293 294 293 293 294 295 294 294 293 293 293 295 301 303 302 303 304 304 305 306 307 307 306 306 305 307 307 308 309
296 296 296 296 296 295 292 293 293 293 293 291 292 292 293 293 293 293 293 294 295 295 294 294 293 294 294 293 294 300 300 305 305 303 305 305 305 305 305 306 307 307 308 308 310
295 296 296 296 295 294 292 292 293 293 293 291 292 293 294 293 293 292 293 294 295 295 295 293 293 293 294 295 294 293 295 299 304 304 304 304 305 305 303 303 305 306 308 308 309
295 296 295 295 295 292 292 292 293 293 289 290 292 293 294 291 291 292 292 293 295 294 295 295 294 294 294 294 295 296 294 295 298 300 307 304 306 305 305 305 305 305 305 307 307
295 294 294 294 293 292 291 293 293 292 282 288 291 292 291 291 292 292 293 293 294 294 294 293 294 295 296 295 295 295 295 296 299 303 304 306 307 305 303 304 304 304 305 305 306
295 293 293 293 292 291 292 292 292 282 281 289 290 291 291 291 292 292 293 293 294 294 295 295 295 293 294 296 296 296 296 295 295 299 300 303 306 304 302 304 303 303 304 305 306
294 293 292 292 292 292 292 291 283 281 286 287 290 291 291 291 292 293 292 291 294 294 293 295 296 297 296 297 296 296 295 290 295 299 299 300 304 305 301 301 302 303 304 304 305
293 292 293 292 291 293 292 284 280 279 282 289 290 290 291 293 293 292 289 289 294 295 295 296 295 296 299 299 297 297 295 290 294 301 300 300 301 302 302 301 301 302 303 304 303
293 293 292 292 292 292 291 279 281 285 290 291 289 287 288 292 292 291 285 291 295 296 296 297 294 296 297 297 299 299 298 297 299 290 303 302 302 302 300 300 302 302 300 300 302
293 293 292 291 291 292 286 286 282 289 290 288 287 285 288 290 292 292 290 293 296 297 295 292 295 296 300 299 299 298 298 298 299 300 304 300 300 300 294 295 295 292 294 296 298
293 293 292 292 292 291 282 280 287 290 290 286 284 288 290 292 292 292 295 295 296 295 293 292 293 295 296 299 300 299 300 296 301 300 296 299 303 291 289 286 285 289 293 293 294
293 290 292 292 288 281 285 284 291 291 290 289 289 289 291 292 292 291 295 294 294 293 292 288 296 295 295 296 299 300 302 301 294 296 296 296 301 290 290 288 293 294 291 292 293
292 291 292 291 283 282 283 285 289 289 288 282 286 289 288 290 291 290 293 294 293 293 292 291 290 292 292 295 298 297 299 302 300 301 302 296 293 290 290 287 291 292 293 291 291
291 288 291 290 290 286 283 285 283 289 286 289 289 290 284 287 289 289 291 292 293 292 294 293 289 291 294 295 296 295 293 295 302 298 297 293 294 290 288 288 288 287 288 291 291
291 287 289 285 287 288 288 286 289 283 287 289 285 284 286 289 288 284 289 291 291 292 291 291 289 290 292 294 295 294 293 293 294 294 297 294 292 289 289 286 285 285 285 287 288
291 290 290 290 290 289 287 284 289 289 288 289 286 289 288 289 290 290 290 291 292 290 292 290 290 291 293 296 294 294 293 292 292 292 292 293 292 290 287 286 285 284 283 284 285
292 291 290 289 287 284 286 288 289 290 290 290 290 290 289 290 291 291 291 291 292 292 291 292 288 289 293 295 295 293 292 292 290 289 291 290 290 288 286 285 284 284 283 283 284
Wind_Speed
21 23 24 24 25 25 26 27 28 28 29 29 30 30 32 34 37 36 38 23 24 20 16 20 17 19 16 18 20 8 4 16 18 16 19 4 6 9 11 18 12 17 21 19 12
23 24 25 25 25 25 26 27 28 28 29 32 31 31 33 35 39 44 2 7 7 5 10 12 12 9 9 9 11 8 8 19 6 15 9 14 9 7 5 9 7 12 19 22 17
23 24 26 25 26 26 27 29 29 30 32 34 33 31 31 31 36 0 6 2 7 6 6 9 13 11 13 12 10 7 22 15 3 19 16 6 5 7 7 5 14 20 24 21 17
25 26 26 26 27 27 29 30 30 32 34 34 34 33 31 29 9 0 7 14 27 24 14 13 9 10 6 14 17 10 17 19 22 16 10 7 13 8 15 15 8 9 8 15 20
26 28 27 28 28 30 31 31 32 33 32 32 32 32 31 19 29 35 23 16 11 15 18 14 12 14 17 9 12 16 18 11 16 24 29 24 14 10 19 31 34 23 14 12 15
28 27 28 29 30 31 32 33 34 35 33 33 33 30 26 24 23 19 23 28 28 29 14 13 8 14 17 16 16 8 8 23 27 24 18 11 15 14 34 26 23 28 23 19 17
27 28 30 30 31 31 33 35 36 36 37 34 32 22 27 45 34 26 20 23 18 11 16 14 11 9 10 9 26 25 16 15 17 10 6 17 23 29 28 20 30 34 31 27 26
28 31 31 30 32 33 34 36 37 39 33 28 29 26 19 27 17 16 11 7 13 18 19 16 18 17 12 16 14 6 5 13 12 19 12 11 28 15 30 23 29 35 42 42 41
28 31 28 30 32 34 36 38 40 34 21 23 27 6 14 5 8 8 18 32 35 35 23 22 21 17 13 12 12 13 21 21 15 9 7 22 28 14 18 22 27 31 38 42 44
29 32 31 30 32 35 38 40 35 20 5 29 5 9 9 12 35 22 16 17 20 22 19 9 9 9 9 12 20 21 22 19 21 7 15 19 22 15 12 22 26 31 35 37 41
29 30 30 28 31 35 36 43 23 6 31 19 37 32 42 27 25 20 19 20 14 4 4 4 4 9 13 16 20 20 18 24 16 14 10 18 21 18 13 17 14 19 24 29 36
28 30 30 31 33 30 34 21 13 18 23 38 33 29 20 13 11 29 18 6 4 7 4 3 10 16 15 14 19 22 17 22 19 8 17 19 25 17 12 16 22 25 28 32 37
28 30 31 31 33 26 34 14 19 22 8 24 15 11 3 5 12 32 16 7 8 12 14 11 14 14 13 15 16 20 23 19 19 7 21 9 22 16 6 7 19 24 32 32 38
30 30 31 32 24 37 18 19 21 23 3 6 5 5 4 31 19 17 39 21 6 14 14 13 21 20 22 13 16 19 19 22 20 16 20 14 17 13 18 20 14 20 23 31 32
29 31 31 30 33 29 19 22 22 8 4 5 6 10 33 15 19 29 8 11 17 19 8 16 10 6 13 26 14 15 17 17 17 13 12 11 9 9 12 14 17 21 30 35 41
31 30 32 34 31 13 15 21 14 6 6 8 7 22 23 34 10 16 21 11 15 9 12 23 17 8 23 21 16 11 10 2 1 5 17 17 16 13 8 14 13 15 29 35 40
31 31 31 31 20 13 15 18 4 5 8 9 20 20 22 13 22 6 7 7 7 6 5 4 12 9 17 17 12 13 5 2 5 10 18 18 11 9 3 12 19 22 29 36 34
30 30 32 14 13 10 15 5 5 5 7 8 17 23 7 17 10 6 7 4 4 8 7 3 7 4 4 8 6 13 12 6 7 7 11 18 15 20 19 15 18 30 34 30 20
30 31 15 11 10 9 12 4 6 5 7 12 16 4 6 14 9 9 4 3 4 6 6 9 7 9 13 15 12 4 11 11 2 2 1 2 5 6 4 10 19 20 11 4 5
34 24 6 10 10 10 3 4 4 4 8 5 4 1 9 13 13 17 6 2 6 8 9 5 12 10 3 5 5 4 5 4 3 5 6 0 3 2 8 9 10 9 7 9 8
24 12 10 12 17 2 2 6 7 10 11 2 5 6 9 10 10 7 6 15 3 6 15 9 5 10 8 4 2 4 5 4 4 3 3 2 2 3 6 5 6 6 9 13 13
11 4 13 17 5 2 2 5 9 13 14 6 4 7 8 12 8 6 8 10 16 11 16 5 5 8 20 12 0 6 5 6 5 4 1 4 0 3 5 5 8 9 14 16 14
13 7 7 10 1 3 6 4 5 5 4 3 4 4 5 9 9 7 8 8 27 15 5 5 2 7 10 4 2 3 5 3 3 2 6 5 4 2 7 6 13 12 16 18 17
7 3 5 5 1 3 4 6 5 10 6 7 8 11 4 7 10 11 23 10 15 24 27 5 3 3 7 14 12 9 12 7 4 3 4 2 1 13 14 13 13 18 22 19 20
2 3 3 4 5 6 3 3 11 5 5 5 4 4 6 11 22 7 10 19 12 18 2 2 4 1 11 17 4 12 13 16 8 4 3 3 4 7 10 9 10 15 20 21 23
4 3 4 11 14 5 3 4 9 5 3 11 6 14 13 14 18 29 23 16 11 2 1 1 4 7 4 7 11 10 16 15 10 10 7 5 3 9 9 9 14 20 21 22 26
7 8 5 6 2 1 3 4 12 17 12 10 16 17 17 19 25 33 36 34 20 17 13 5 1 3 4 1 5 5 8 11 9 10 4 7 6 10 5 4 8 21 23 25 27
Wind_Direction
2 3 360 359 357 354 351 348 346 344 341 336 335 333 331 326 318 315 316 302 288 276 274 252 252 243 234 228 222 203 206 234 224 208 223 165 191 215 228 220 199 197 218 230 221
1 0 356 355 353 352 348 344 343 341 338 336 336 330 326 326 317 312 331 33 81 359 251 259 258 236 201 215 213 182 223 239 211 220 217 232 197 212 185 201 221 216 217 227 215
357 355 352 351 348 346 343 340 340 338 337 335 336 332 327 325 321 64 182 69 16 334 291 279 264 242 233 218 203 215 234 232 241 230 235 248 223 217 180 207 217 217 223 227 212
351 349 347 346 344 343 340 339 337 336 334 332 332 330 325 316 297 37 246 290 298 290 280 284 263 238 237 226 219 254 244 240 250 259 257 245 251 246 216 231 237 246 246 229 216
350 344 346 342 341 341 339 336 334 331 330 328 326 323 322 298 267 301 297 301 294 302 295 294 274 266 243 239 231 241 249 248 250 247 251 257 247 244 240 246 255 260 233 233 237
349 346 340 336 342 338 336 334 330 328 328 325 320 315 302 276 292 302 302 292 291 310 307 289 265 269 300 258 240 247 259 252 252 258 256 237 256 233 251 242 246 240 237 237 241
343 337 341 346 337 335 333 330 327 324 324 320 318 310 289 267 296 296 297 294 294 290 312 304 316 276 293 259 259 252 263 265 251 230 245 238 257 242 250 235 235 245 248 249 251
342 339 343 338 335 333 330 327 323 325 323 317 325 300 274 302 306 301 298 322 294 298 295 301 294 289 250 264 289 268 246 246 238 226 225 192 259 254 240 225 231 237 243 252 255
337 335 336 337 334 332 330 326 328 328 316 330 314 278 269 315 317 313 297 297 295 296 293 298 286 247 252 244 257 243 247 240 258 218 208 209 254 243 248 223 228 233 234 243 249
336 342 341 334 334 333 330 332 336 333 295 346 322 307 267 313 306 309 326 316 296 290 286 253 231 218 221 221 233 235 229 244 242 210 211 228 245 232 226 213 221 226 231 235 241
336 338 339 337 335 334 335 341 357 344 329 305 287 279 282 308 306 302 324 301 290 258 240 235 190 239 263 244 260 269 250 255 248 228 245 237 244 239 226 243 236 235 234 237 241
337 337 338 337 334 337 341 350 346 314 310 315 300 293 300 302 293 312 313 250 204 230 217 259 242 253 242 250 245 250 276 255 254 233 218 237 248 249 215 235 234 235 242 245 253
334 335 336 335 333 336 339 335 332 329 299 301 317 294 340 332 294 294 289 260 223 246 254 252 263 261 252 251 243 244 244 255 272 245 232 228 248 238 232 234 242 231 241 244 248
331 334 337 338 338 332 341 333 331 330 321 280 326 320 324 331 299 313 294 275 230 251 257 264 254 246 254 240 238 260 246 243 256 275 243 182 255 229 226 230 235 248 242 248 249
331 332 340 340 328 332 331 331 327 328 359 283 310 322 320 295 297 308 308 282 252 257 256 249 256 259 246 233 214 244 252 249 244 247 286 200 236 235 208 222 226 241 247 248 250
335 332 339 334 331 329 331 332 323 42 262 312 343 326 325 318 303 277 301 272 258 260 238 254 263 234 243 255 226 250 252 256 308 254 260 258 223 222 176 205 219 233 239 240 243
332 331 335 331 329 325 342 336 24 118 338 305 327 325 311 296 312 337 307 290 270 285 237 266 254 242 235 257 239 218 150 253 216 225 243 240 242 250 233 211 221 232 235 243 241
330 334 335 339 330 329 341 38 82 234 252 293 324 305 287 319 299 298 300 293 278 251 285 263 322 196 162 218 236 203 179 167 209 207 236 228 238 247 234 229 227 232 238 247 250
335 341 345 337 318 332 344 30 215 229 302 327 322 332 298 322 322 326 174 271 280 340 18 331 276 273 252 262 225 180 193 205 359 310 218 187 284 320 166 223 233 239 239 293 304
337 344 338 325 327 327 65 267 245 264 316 346 301 24 309 323 332 345 331 252 309 348 17 269 292 300 353 260 187 176 160 166 177 204 196 4 292 253 353 320 9 23 21 349 318
345 333 332 327 329 18 160 236 280 291 322 169 258 284 275 311 322 309 286 304 265 336 342 288 234 287 328 304 280 169 191 199 146 211 139 107 295 303 290 307 319 335 10 1 351
345 319 317 325 10 5 247 216 301 286 318 263 271 247 265 316 297 288 278 300 337 339 331 250 286 310 297 304 29 242 258 198 153 225 87 132 193 1 313 316 335 4 12 7 9
327 279 295 336 68 303 289 265 253 305 270 302 264 250 269 296 312 265 285 305 315 334 322 311 334 313 335 338 265 24 316 279 94 56 172 138 243 43 21 3 11 7 5 6 8
332 323 304 312 238 196 308 283 296 298 258 236 264 290 320 287 264 278 288 302 329 308 305 349 289 202 285 286 310 334 329 288 116 112 154 241 21 349 356 358 353 2 358 2 15
287 267 291 296 307 290 277 249 301 317 243 288 298 227 282 303 310 250 269 299 297 288 320 76 271 196 295 296 170 14 358 36 71 15 71 50 106 341 348 344 344 358 1 3 5
248 261 281 268 283 290 301 270 296 300 256 300 226 275 282 277 275 289 292 289 289 299 350 329 273 325 272 209 80 42 19 39 42 22 40 36 44 360 323 2 13 8 358 357 356
237 272 259 274 279 78 245 237 299 306 294 247 290 302 297 283 284 287 280 277 272 275 284 258 246 352 273 209 273 32 5 27 50 28 355 36 322 325 330 343 10 5 1 355 353